This demonstration page uses our WeatherBlox Daily Observations layout. Learn more.

Left ArrowRight Arrow

44.89941, -97.11507

Hourly Observations for October 9, 2021

Temp ( °F °C ) Dew Point ( °F °C ) Humidity (%) Winds ( mph kmh ) Pressure ( in mb ) Visibility ( mi km ) Precip ( " mm )
12:53 am 00:53 Clear 56 13.3 54 12.2 93 93 S 3 6 29.81 1010 10 16 N/A
1:53 am 01:53 Clear 57 13.9 54 12.2 90 90 SSE 6 9 29.80 1009 10 16 N/A
2:53 am 02:53 Clear 58 14.4 54 12.2 87 87 SSE 6 9 29.79 1009 10 16 N/A
3:53 am 03:53 Clear 58 14.4 54 12.2 87 87 E 3 6 29.76 1008 10 16 N/A
4:53 am 04:53 Mostly Cloudy 58 14.4 55 12.8 90 90 N N/A 29.77 1008 10 16 N/A
5:53 am 05:53 Cloudy 56 13.3 55 12.8 97 97 N 6 9 29.77 1008 9 14 N/A
6:53 am 06:53 Partly Cloudy 57 13.9 54 12.2 90 90 N N/A 29.77 1008 10 16 N/A
7:53 am 07:53 Cloudy 58 14.4 56 13.3 93 93 NNE 9 15 29.76 1008 9 14 N/A
8:53 am 08:53 Partly Cloudy 61 16.1 57 13.9 87 87 NE 12 19 29.73 1007 10 16 0.00 0.00
9:53 am 09:53 Mostly Sunny 64 17.8 59 15 84 84 VRB 6 9 29.74 1007 10 16 N/A
10:53 am 10:53 Mostly Sunny 63 17.2 59 15 87 87 E 10 17 29.74 1007 10 16 N/A
11:06 am 11:06 Mostly Sunny 65 18.3 60 15.6 84 84 ENE 13 20 29.70 1006 10 16 N/A
11:53 am 11:53 Mostly Sunny 65 18.3 59 15 81 81 ENE 13 20 29.71 1006 10 16 N/A
12:53 pm 12:53 Sunny 69 20.6 60 15.6 73 73 E 9 15 29.67 1005 10 16 N/A
1:53 pm 13:53 Sunny 69 20.6 60 15.6 73 73 E 8 13 29.63 1003 10 16 N/A
2:53 pm 14:53 Mostly Cloudy 69 20.6 60 15.6 73 73 E 10 17 29.60 1002 10 16 N/A
3:53 pm 15:53 Cloudy with Light Rain 68 20 60 15.6 76 76 E 13 20 29.53 1000 10 16 0.00 0.00
4:53 pm 16:53 Mostly Cloudy 68 20 61 16.1 78 78 E 9 15 29.50 999 10 16 0.00 0.00
5:43 pm 17:43 Mostly Cloudy with Nearby Thunderstorms 68 20 62 16.7 81 81 E 9 15 29.43 996 10 16 0.00 0.00
5:53 pm 17:53 Cloudy with Thunderstorms 69 20.6 62 16.7 78 78 E 9 15 29.46 998 10 16 0.00 0.00
6:19 pm 18:19 Cloudy with Strong Thunderstorms 57 13.9 55 12.8 93 93 N 26 43 29.48 998 2 2 0.24 6.10
6:23 pm 18:23 Cloudy with Strong Thunderstorms 56 13.3 56 13.3 100 100 N 22 35 29.49 999 1 1 0.41 10.41
6:26 pm 18:26 Cloudy with Strong Thunderstorms 56 13.3 56 13.3 100 100 WNW 13 20 29.53 1000 1 1 0.54 13.72
6:43 pm 18:43 Cloudy with Strong Thunderstorms 57 13.9 57 13.9 100 100 NW 18 30 29.50 999 1 2 1.27 32.26
6:46 pm 18:46 Cloudy with Strong Thunderstorms 57 13.9 57 13.9 100 100 NW 16 26 29.50 999 2 3 1.31 33.27
6:53 pm 18:53 Cloudy with Nearby Thunderstorms 57 13.9 56 13.3 96 96 N 17 28 29.51 999 3 4 1.43 36.32
7:00 pm 19:00 Cloudy with Nearby Thunderstorms 57 13.9 56 13.3 96 96 NNE 13 20 29.51 999 5 8 0.03 0.76
7:02 pm 19:02 Cloudy with Nearby Thunderstorms 57 13.9 56 13.3 96 96 NNE 10 17 29.51 999 6 10 0.04 1.02
7:08 pm 19:08 Cloudy with Thunderstorms 57 13.9 56 13.3 96 96 NNE 8 13 29.51 999 8 13 0.05 1.27
7:15 pm 19:15 Cloudy with Thunderstorms 56 13.3 56 13.3 100 100 N 6 9 29.49 999 10 16 0.05 1.27
7:28 pm 19:28 Cloudy with Nearby Thunderstorms 57 13.9 56 13.3 96 96 NE 7 11 29.48 998 10 16 0.06 1.52
7:35 pm 19:35 Cloudy with Thunderstorms 57 13.9 56 13.3 96 96 VRB 3 6 29.49 999 10 16 0.06 1.52
7:53 pm 19:53 Cloudy with Thunderstorms 57 13.9 56 13.3 96 96 VRB 7 11 29.50 999 10 16 0.09 2.29
8:43 pm 20:43 Cloudy with Thunderstorms 57 13.9 56 13.3 96 96 VRB 5 7 29.49 999 9 14 0.39 9.91
8:53 pm 20:53 Cloudy with Strong Thunderstorms 57 13.9 55 12.8 93 93 VRB 6 9 29.48 998 5 8 0.46 11.68
9:36 pm 21:36 Cloudy with Heavy Rain 57 13.9 56 13.3 96 96 NW 6 9 29.50 999 3 5 0.18 4.57
9:48 pm 21:48 Cloudy with Nearby Thunderstorms 57 14 55 13 94 94 WSW 7 11 29.51 999 5 8 0.21 5.33
9:53 pm 21:53 Cloudy with Nearby Thunderstorms 57 13.9 56 13.3 96 96 W 9 15 29.52 1000 5 8 0.23 5.84
10:01 pm 22:01 Cloudy with Thunderstorms 56 13.3 56 13.3 100 100 NNW 10 17 29.48 998 6 10 0.01 0.25
10:11 pm 22:11 Cloudy with Nearby Thunderstorms 56 13.3 56 13.3 100 100 ENE 10 17 29.47 998 10 16 0.02 0.51
10:31 pm 22:31 Cloudy 56 13.3 55 12.8 97 97 NNW 15 24 29.44 997 10 16 0.02 0.51
10:53 pm 22:53 Mostly Cloudy 57 13.9 56 13.3 96 96 SE 8 13 29.50 999 10 16 0.02 0.51
11:12 pm 23:12 Cloudy 57 13.9 56 13.3 96 96 S 5 7 29.49 999 10 16 N/A
11:23 pm 23:23 Cloudy 57 13.9 56 13.3 96 96 WSW 7 11 29.50 999 10 16 N/A
11:29 pm 23:29 Cloudy 58 14.4 56 13.3 93 93 WSW 10 17 29.50 999 10 16 N/A
11:53 pm 23:53 Mostly Cloudy 56 13.3 56 13.3 100 100 NNW 6 9 29.49 999 10 16 N/A

Powered by AerisWeather